Overview Statistics Trail Chart Weather Telemetry Raw packets
 

This is the latest recevied weather packets stored in our database for station/object IT9IJI-15. If no packets are shown the sender has not sent any weather packets the latest 10 day(s).

<< 6 7 8 9 10 >>
Time Temp. Humidity Pressure Rain* Wind** Luminosity Snow
1787834069 42.78° C 25% 898.4 hPa - - - -
1787832269 42.78° C 24% 898.4 hPa - - - -
1787831379 32.78° C 24% 884.8 hPa - - - -
1787830469 42.78° C 23% 898.5 hPa - - - -
1787829578 42.78° C 23% 898.6 hPa - - - -
1787828669 42.78° C 23% 898.7 hPa - - - -
1787827769 42.78° C 24% 898.7 hPa - - - -
1787826869 42.78° C 24% 898.7 hPa - - - -
1787825977 42.78° C 24% 898.6 hPa - - - -
1787825068 42.22° C 24% 898.6 hPa - - - -
1787824168 42.22° C 23% 898.6 hPa - - - -
1787823268 42.22° C 23% 898.4 hPa - - - -
1787821469 42.22° C 23% 898.4 hPa - - - -
1787820571 36.11° C 23% 891.6 hPa - - - -
1787819645 42.22° C 23% 898.4 hPa - - - -
1787818745 41.67° C 24% 898.4 hPa - - - -
1787817844 42.22° C 25% 898.1 hPa - - - -
1787816944 41.67° C 25% 898.3 hPa - - - -
1787816044 41.67° C 25% 898.1 hPa - - - -
1787815144 41.67° C 25% 898.1 hPa - - - -
1787814244 41.67° C 25% 897.8 hPa - - - -
1787813344 41.11° C 25% 897.7 hPa - - - -
1787812444 40.56° C 26% 897.3 hPa - - - -
1787811607 39.44° C 28% 897.3 hPa - - - -
1787811331 38.89° C 28% 897.4 hPa - - - -

* Rain since midnight (hover to see other rain measurements)
** Current wind speed in m/s (hover to see current wind gust speed)